RH
64 71 67 67 65 69 65 67 69 68 70 74 78 74 74 75 74 78 79 77 81 81 82 82 84 89 86 91 98 95 99 96 97 82 76 80 84 87 85 90 88 80 70
88 85 69 71 73 64 64 63 67 70 68 73 73 75 75 74 76 81 81 74 81 83 82 85 84 76 86 82 78 94 94 93 91 93 82 82 83 82 93 97 90 91 92
86 86 76 63 57 66 68 65 67 72 73 65 70 77 76 73 76 78 81 81 79 78 77 79 82 73 85 89 76 77 70 76 83 87 88 88 74 69 80 94 91 82 73
66 74 66 62 60 63 67 69 68 75 76 72 71 74 73 74 72 73 74 78 77 74 77 77 74 76 79 79 77 83 83 78 84 91 89 84 78 71 72 79 89 83 67
75 70 69 68 64 66 75 79 81 83 79 77 77 77 77 71 64 72 74 74 76 74 76 76 76 79 87 82 68 77 81 80 84 91 86 81 69 66 76 66 72 74 68
79 80 74 74 77 79 81 84 83 80 80 85 85 84 81 67 78 90 80 70 73 74 74 78 78 89 89 95 94 89 79 81 88 84 81 82 83 73 66 62 62 63 60
81 79 87 96 86 83 81 83 86 86 83 86 83 82 82 78 93 95 94 67 68 71 81 80 73 58 82 76 94 96 95 94 90 81 80 76 76 74 76 80 78 71 64
79 79 74 87 88 90 76 76 80 80 82 84 80 83 83 76 95 97 95 76 72 72 73 73 76 69 70 74 70 72 73 73 78 69 71 72 74 72 79 82 85 80 70
65 68 73 73 74 70 65 69 72 73 74 74 76 82 83 79 98 98 96 75 72 76 74 73 72 68 79 96 71 71 72 67 80 94 93 93 94 96 87 69 70 79 66
60 62 66 68 67 65 68 71 72 71 68 61 69 71 84 82 96 100 96 68 70 70 74 79 96 83 96 100 76 74 75 67 73 74 76 83 91 82 99 80 83 72 72
60 61 63 68 69 71 73 74 74 74 76 75 73 74 82 86 87 100 100 83 74 79 79 92 88 100 100 100 98 82 80 86 83 68 81 76 79 68 67 83 85 78 81
68 71 71 68 58 61 74 75 79 80 79 78 80 80 96 96 100 100 100 100 98 85 93 94 94 100 100 100 99 98 100 97 94 95 94 92 74 62 65 69 83 85 73
69 74 70 67 66 69 76 76 64 79 69 67 61 80 98 97 99 100 99 98 96 96 90 95 98 97 100 100 100 100 100 99 98 95 84 78 70 76 72 75 75 82 86
70 73 75 72 73 75 61 60 64 67 64 62 61 86 98 98 97 96 96 92 90 94 93 92 95 97 100 100 100 100 99 99 95 95 99 98 96 95 88 77 73 73 72
63 64 68 62 70 67 67 58 61 70 65 57 65 68 90 97 92 94 82 74 92 94 84 83 94 98 99 99 100 99 100 97 94 97 99 95 93 98 96 93 84 76 72
65 53 48 48 55 57 56 60 97 96 100 100 100 97 85 97 100 100 100 100 100 100 70 72 87 90 88 98 98 99 99 99 98 94 74 71 73 72 77 78 75 66 68
69 67 51 54 48 55 61 57 52 63 99 100 100 100 100 100 100 100 100 100 100 100 71 74 80 88 90 93 97 99 98 89 85 74 67 67 70 73 68 60 60 60 60
71 78 62 53 51 51 55 55 52 56 53 52 95 99 100 100 100 100 100 100 99 99 76 80 84 86 91 92 90 83 73 69 64 61 60 59 60 57 55 55 54 57 55
72 65 65 58 56 61 56 60 56 59 60 58 61 97 98 100 100 100 100 92 96 93 81 82 71 79 82 84 83 70 66 62 60 59 55 53 53 50 55 51 54 74 68
74 86 84 65 61 66 63 61 60 63 63 61 64 83 96 99 99 98 98 88 86 77 70 76 78 78 92 80 66 63 56 54 52 49 48 48 49 47 47 47 44 42 45
83 83 91 87 79 69 62 59 58 57 56 57 59 73 100 98 98 98 96 77 68 83 84 86 88 80 69 61 56 51 46 45 46 44 42 44 44 42 45 43 39 38 36
94 93 92 93 75 68 60 57 57 59 59 63 79 96 100 98 99 97 97 94 88 75 89 86 71 57 50 49 47 41 38 38 40 39 40 39 38 37 36 34 34 33 32
94 92 84 76 74 74 70 62 57 58 58 75 90 95 98 98 98 95 90 90 78 66 63 54 47 42 40 37 31 28 30 35 39 36 36 36 36 35 33 32 31 31 31
95 95 95 91 86 78 66 63 62 79 69 89 92 98 98 97 94 89 88 73 74 59 55 58 48 34 37 33 35 35 39 41 40 38 36 34 34 39 32 33 31 36 32
95 95 96 95 93 90 86 70 70 71 85 95 97 98 96 94 91 88 74 54 56 52 42 39 33 36 38 39 40 44 78 83 47 58 34 36 38 40 34 31 34 32 37
97 96 95 96 93 91 89 78 78 88 97 98 97 96 95 94 90 86 78 68 53 48 45 46 42 43 42 40 46 80 92 84 58 78 38 37 37 35 34 37 41 33 37
Wind_Speed
11 11 13 11 11 11 12 13 13 12 12 12 11 10 10 10 10 10 11 11 11 11 10 11 13 11 7 6 6 6 5 6 5 3 3 2 5 4 3 5 7 6 7
8 5 11 9 10 12 14 16 13 14 12 13 13 12 11 11 10 11 11 10 11 12 11 11 12 5 9 8 7 8 6 7 5 7 3 2 5 3 3 5 6 5 6
7 11 8 10 13 15 15 14 13 14 14 14 14 14 13 13 11 12 11 11 11 11 10 8 11 9 9 7 8 8 7 6 6 5 2 1 4 3 3 3 5 7 7
15 13 14 15 14 14 13 13 15 15 14 14 14 14 15 13 13 13 13 13 14 12 12 12 12 10 10 9 9 9 7 7 7 5 4 3 5 3 4 4 5 2 5
15 18 16 12 14 15 15 13 15 13 13 13 13 13 14 12 12 14 14 14 14 13 11 11 11 10 9 8 7 9 9 7 6 6 5 4 5 5 5 2 2 3 5
9 9 11 8 7 11 12 11 11 12 12 10 12 13 13 10 12 15 14 12 13 12 10 10 10 9 10 10 10 7 7 8 8 6 6 7 8 6 5 5 4 4 4
6 8 8 4 3 9 11 9 10 10 9 10 11 11 13 13 11 12 14 14 11 9 10 9 8 7 10 10 11 7 6 7 9 8 8 9 7 7 5 6 6 5 6
8 10 9 9 11 12 7 6 6 5 7 7 8 11 11 11 9 12 14 14 11 11 10 10 9 9 10 10 8 10 11 10 12 10 10 10 9 7 6 5 5 5 6
5 8 12 12 11 9 3 2 2 2 4 4 6 9 12 12 10 13 11 12 12 12 11 10 9 10 9 11 9 10 10 10 9 11 10 8 8 7 7 6 7 5 7
4 4 4 6 7 5 3 1 1 3 5 6 8 9 11 12 7 10 12 10 11 9 9 9 8 8 6 11 10 10 10 10 9 9 9 11 12 11 9 11 7 8 5
6 5 5 6 5 4 3 1 2 4 6 8 10 9 10 10 8 8 11 11 10 7 4 5 7 6 8 6 13 10 10 7 7 7 6 6 6 6 6 7 8 8 7
9 9 8 7 4 4 3 1 3 3 4 6 8 9 3 4 4 9 15 13 10 12 11 7 9 19 11 6 11 13 8 5 5 6 5 5 6 6 5 6 7 8 8
9 12 11 7 6 5 5 5 4 2 3 5 6 6 3 2 3 15 17 15 17 12 10 16 22 18 16 4 10 11 9 4 4 4 5 5 3 3 3 4 5 5 6
11 12 10 10 9 9 7 6 5 4 4 4 5 5 3 4 6 7 5 9 8 7 3 2 2 3 10 10 4 4 4 5 6 5 2 2 2 1 2 0 3 3 5
11 11 12 12 12 11 10 8 7 7 6 4 5 6 6 7 9 12 11 11 5 3 8 5 2 2 5 5 5 2 4 5 4 5 4 4 4 2 2 1 2 5 6
13 11 12 11 11 11 9 8 10 10 9 10 10 8 9 9 7 6 9 11 4 10 4 5 6 7 8 6 7 7 5 6 6 6 7 5 4 3 4 2 1 1 0
16 14 12 13 13 11 10 9 9 7 11 11 12 12 13 16 10 9 10 8 10 8 7 6 7 8 7 5 6 6 5 5 6 6 6 4 5 4 3 3 2 1 2
17 18 15 13 13 13 12 11 8 8 8 7 7 8 10 11 13 13 12 8 4 6 6 7 7 7 6 6 7 7 8 8 7 5 5 5 5 4 3 2 1 1 1
15 14 14 14 13 13 12 12 10 9 9 8 5 4 4 2 8 13 17 7 8 8 8 7 6 6 7 6 6 6 7 7 6 5 4 5 4 3 3 2 4 4 1
16 20 19 14 13 13 13 12 10 9 9 8 7 7 4 3 4 5 7 9 8 9 8 8 8 9 6 8 8 8 8 7 6 5 5 4 3 2 2 2 1 1 2
11 12 13 11 11 12 13 12 10 9 9 8 8 7 11 7 7 8 8 9 9 8 10 10 10 9 9 9 8 8 8 6 6 5 5 4 3 3 3 3 2 3 4
9 9 8 8 10 11 11 10 10 9 9 9 6 6 12 7 6 5 5 7 6 8 8 10 10 9 8 9 8 8 8 7 6 5 4 4 3 4 3 3 3 2 2
10 11 11 11 11 12 10 10 9 10 10 8 7 6 6 5 6 7 8 8 7 9 8 10 12 10 9 9 8 7 7 7 5 4 5 5 4 4 3 2 2 0 2
13 14 13 12 11 11 12 12 11 10 10 8 8 7 7 8 8 9 9 10 10 10 10 10 10 14 11 10 9 8 8 7 6 6 6 5 5 3 3 2 1 3 2
16 15 16 15 12 12 11 13 12 12 9 8 8 9 10 10 10 9 9 11 11 11 13 11 12 15 14 15 13 13 10 8 7 3 5 5 5 5 3 2 1 1 3
15 17 16 13 14 13 12 13 12 8 9 10 10 11 12 11 11 11 10 12 11 12 12 9 14 17 17 14 15 12 8 7 6 7 3 4 3 2 2 1 0 1 1
Wind_Direction
203 206 211 218 229 231 232 245 240 237 233 243 237 233 228 225 222 221 236 247 236 252 248 245 251 220 216 220 214 218 210 212 251 273 267 290 274 234 249 211 229 237 230
209 231 229 198 222 229 232 237 241 244 232 237 243 237 232 229 221 222 231 241 240 243 236 225 244 222 216 223 210 215 211 205 219 259 261 260 272 267 235 222 221 219 237
192 241 248 243 233 235 232 231 243 240 240 240 240 239 236 232 227 230 229 233 238 246 256 238 242 225 229 211 215 204 205 208 215 239 272 179 277 255 238 226 240 232 237
214 216 228 242 231 232 229 230 238 237 237 240 238 240 239 238 235 237 233 232 238 244 246 237 237 224 227 219 210 211 200 196 206 210 231 240 252 215 245 256 240 248 278
223 235 233 230 232 228 225 225 230 224 230 233 238 242 241 238 239 233 236 241 239 242 243 240 241 230 235 238 222 213 203 202 205 195 204 219 238 220 222 205 236 278 265
207 244 253 230 258 265 252 231 237 232 224 218 229 232 237 239 231 216 234 237 239 240 245 245 246 212 224 222 225 248 225 209 217 207 212 212 218 229 227 242 242 257 290
139 152 199 114 333 289 241 230 231 235 230 225 233 235 238 239 213 210 212 238 239 238 242 245 241 232 212 214 205 193 211 235 258 235 237 229 234 230 242 223 234 254 263
135 140 153 151 171 236 218 176 213 233 235 224 242 248 246 250 207 206 202 230 232 234 232 232 237 231 213 210 215 209 221 214 219 229 244 257 246 252 225 250 259 261 243
176 154 152 166 181 200 193 153 224 243 253 261 260 266 258 258 203 209 200 225 227 226 226 227 222 223 198 190 212 220 218 221 192 216 246 274 270 247 264 240 229 233 257
234 228 181 167 165 163 161 219 314 331 326 316 293 274 266 267 229 201 200 234 227 222 219 226 209 249 164 175 215 223 233 238 218 215 217 229 234 236 218 238 252 234 242
232 243 235 213 184 165 180 172 316 332 325 314 302 295 282 270 256 191 200 231 227 203 163 96 71 43 351 219 211 232 236 242 222 229 228 234 223 222 221 219 230 236 240
281 265 257 258 234 180 194 266 278 297 299 299 303 301 324 306 192 183 170 180 187 153 150 156 152 143 142 242 294 266 256 222 235 244 232 225 222 229 227 226 211 223 254
258 254 252 247 264 259 220 209 241 271 301 301 308 306 278 243 189 173 163 171 180 177 177 188 196 180 128 120 209 254 232 199 228 225 245 247 267 296 261 223 225 230 242
269 258 262 261 243 237 247 223 208 217 248 281 297 289 251 209 187 175 205 196 229 275 10 40 170 154 123 114 191 156 221 214 189 212 170 166 88 172 226 264 243 230 249
266 255 250 244 236 240 228 226 222 216 217 238 254 268 254 228 216 220 211 209 217 228 138 158 125 113 130 150 124 239 217 197 168 182 155 131 157 223 122 39 244 230 250
276 261 253 250 243 235 238 230 224 239 198 220 241 239 266 278 279 272 256 284 197 179 245 215 195 202 201 162 160 191 201 166 174 194 122 140 165 156 131 151 204 279 292
272 270 264 253 249 239 226 224 247 207 216 221 230 241 233 252 252 237 206 211 185 176 234 203 202 195 198 183 175 159 140 151 156 111 146 147 125 116 188 148 128 187 181
269 263 262 257 248 244 230 220 220 236 254 252 204 229 243 248 227 194 186 166 176 226 209 199 192 178 166 165 147 154 146 148 134 135 144 126 123 119 127 122 150 201 204
265 262 261 253 239 233 229 213 201 222 241 255 248 220 199 249 241 190 182 198 184 185 195 187 171 148 140 131 129 140 134 123 121 130 129 109 113 144 144 148 106 46 319
266 259 253 257 244 228 221 207 195 210 229 239 245 239 164 142 194 182 195 207 176 177 165 143 128 124 109 119 128 121 121 115 119 122 102 102 101 108 131 133 110 63 53
266 266 245 235 236 224 212 207 203 212 224 236 243 222 178 193 196 186 197 190 169 153 144 132 124 115 117 125 118 119 118 121 115 107 106 108 124 132 123 111 84 55 19
257 254 249 224 225 227 220 213 208 212 223 232 225 196 180 199 191 171 111 110 122 131 130 117 112 113 118 113 117 118 115 116 108 112 118 122 121 104 87 67 59 36 350
248 243 238 234 227 228 225 231 218 218 222 223 179 178 172 180 119 120 115 122 113 109 98 105 111 105 97 97 101 111 117 108 109 120 121 116 103 93 83 80 62 349 340
247 237 223 219 217 219 222 221 224 223 223 184 171 158 142 123 116 112 124 115 108 99 96 96 101 108 112 104 98 99 104 110 111 101 102 108 113 142 113 109 82 37 3
256 246 226 208 206 203 207 220 218 219 190 164 150 129 121 117 119 121 118 114 105 106 102 109 105 105 101 102 100 95 80 45 88 70 108 111 110 113 82 86 39 41 0
252 234 227 225 197 192 199 206 207 192 157 142 132 130 127 127 121 120 112 106 102 96 103 101 107 110 109 100 96 91 87 74 85 34 88 106 116 123 120 116 95 314 333